Flag for Germany Weather past 2 weeks in Friesoythe, Lower Saxony, Germany

Now
57 °F

Cool.


Feels Like: 56 °F
Forecast: 54 / 68 °F
Wind: 6 mph from Southwest

Location: Meppen-Mil

Current Time: Aug 28, 2015 at 12:37:25 AM

Latest Report: Aug 27, 2015 at 11:20 PM


Visibility: 3 mi

Pressure: 29.86 "Hg

Humidity: 88%

Dew point: 54 °F

Location of FriesoytheLocation

Historic Weather in Friesoythe — Graph

°F

Friesoythe temperature yesterday

Maximum temperature yesterday: 68 °F (at 12:20 AM)
Minimum temperature yesterday: 57 °F (at 5:20 PM)
Average temperature yesterday: 62 °F

Past Weeks' High & Low Weather Summary

 TemperatureHumidityPressure
High81 °F (Aug 13, 3:20 PM)100% (Aug 19, 5:20 AM)30.24 "Hg (Aug 19, 5:20 AM)
Low50 °F (Aug 19, 6:20 AM)28% (Aug 22, 4:20 PM)29.50 "Hg (Aug 24, 5:20 PM)
Average65 °F76%29.92 "Hg
* Reported Aug 12 11:20 PM — Aug 27 11:20 PM, Friesoythe, Weather by CustomWeather, © 2015

Note: Actual official high and low records may vary slightly from our data, if they occured in-between our weather recording intervals... More about our weather records

Advertising

Friesoythe weather history for previous 24 hours

 ConditionsComfort  
Time TempWeatherWind HumidityBarometerVisibility
11:20 PM
Thu, Aug 27
57 °FCool.6 mph88%29.86 "Hg3 mi
10:20 PM57 °FCool.7 mph94%29.83 "Hg3 mi
9:20 PM57 °FCool.7 mph88%29.83 "Hg3 mi
8:20 PM57 °FCool.8 mph88%29.83 "Hg4 mi
7:20 PM57 °FCool.9 mph88%29.83 "Hg4 mi
6:20 PM57 °FCool.7 mph94%29.83 "Hg3 mi
5:20 PM57 °FCool.8 mph88%29.83 "Hg3 mi
4:20 PM59 °FLight rain. Mostly cloudy.8 mph82%29.83 "HgN/A
3:20 PM59 °FLight rain. Cloudy.10 mph82%29.83 "HgN/A
2:20 PM63 °FLight rain. Partly sunny.12 mph77%29.83 "HgN/A
1:20 PM63 °FLight rain. Broken clouds.6 mph73%29.83 "HgN/A
12:20 PM64 °FPartly sunny.10 mph64%29.80 "HgN/A
11:20 AM64 °FPartly sunny.8 mph68%29.80 "HgN/A
10:20 AM63 °FPartly sunny.8 mph73%29.80 "HgN/A
9:20 AM63 °FPartly sunny.8 mph73%29.80 "HgN/A
8:20 AM64 °FPartly cloudy.9 mph78%29.77 "HgN/A
7:20 AM64 °FPartly cloudy.8 mph83%29.74 "HgN/A
6:20 AM66 °FPartly cloudy.12 mph83%29.71 "HgN/A
5:20 AM64 °FMild.8 mph88%29.71 "Hg4 mi
4:20 AM64 °FMild.5 mph88%29.71 "Hg4 mi
3:20 AM64 °FMild.6 mph88%29.74 "Hg2 mi
2:20 AM64 °FMild.1 mph88%29.74 "Hg4 mi
1:20 AM64 °FMild.2 mph88%29.74 "Hg4 mi
12:20 AM68 °FMild.6 mph78%29.77 "Hg4 mi
Weather by CustomWeather, © 2015

See weather overviewHow to use our weather pages